783  
ASUS44 KSHV 280610  
RWRSHV  
 
THE FOUR STATE AREA WEATHER ROUNDUP  
NATIONAL WEATHER SERVICE SHREVEPORT LA  
1200 AM CST SUN FEB 28 2021  
 
NOTE: "FAIR" INDICATES FEW OR NO CLOUDS BELOW 12000 FEET  
WITH NO SIGNIFICANT WEATHER AND/OR S TO VISIBILITY
.  
 
!LAZ001-LAZ014-TXZ097-280700  
SHREVEPORT...MONROE...TEXARKANA RADIOS  
 
CITY SKY/WX TMP DP RH WIND PRES REMARKS
 
SHREVEPORT CLOUDY 69 65 86 S9 29.91S  
MONROE MOCLDY 73 67 81 S10G18 29.95F  
NATCHITOCHES RAIN 70 69 96 S6 29.95S  
TEXARKANA LGT RAIN 68 63 84 S13 29.87F  

 
 
!LAZ001-LAZ014-TXZ097-280700  
OTHER LOCATIONS...  
 
CITY SKY/WX TMP DP RH WIND PRES REMARKS
 
DOWNTOWN SHV MOCLDY 68 65 90 SE7 29.91S  
BOSSIER CITY CLOUDY 68 66 91 S10 29.91S  
RUSTON CLOUDY 70 66 88 S8 29.98F  
LITTLE ROCK FOG 51 50 96 CALM 29.91F VSB 1/16  
EL DORADO MOCLDY 65 62 90 SE6 29.93S  
JACKSON CLOUDY 71 65 81 S12 30.02S  
NEW ORLEANS MOCLDY 69 66 90 SE6 30.04F  
HOUSTON CLOUDY 71 68 90 S14 29.92F  
LUFKIN CLOUDY 71 70 96 S10 29.93R  
TYLER CLOUDY 71 66 84 S14 29.86S  
DAL FT WORTH CLOUDY 68 64 87 S14 29.81S  

 
 
!TXZ136-TXZ165-280700  
TYLER...LUFKIN RADIOS  
 
CITY SKY/WX TMP DP RH WIND PRES REMARKS
 
TYLER CLOUDY 71 66 84 S14 29.86S  
GILMER CLOUDY 69 65 86 S7 29.87S  
LONGVIEW CLOUDY 70 65 84 S9 29.88S  
LUFKIN CLOUDY 71 70 96 S10 29.93R  

 
 
!TXZ136-TXZ165-280700  
OTHER LOCATIONS...  
 
CITY SKY/WX TMP DP RH WIND PRES REMARKS
 
NACOGDOCHES CLOUDY 71 67 87 S9G16 29.93R  
BEAUMONT CLOUDY 69 68 96 S17G28 29.96R  
HOUSTON CLOUDY 71 68 90 S14 29.92F  
COLLEGE STN CLOUDY 73 68 84 S12 29.89S  
AUSTIN CLOUDY 73 68 84 S12 29.86S  
DAL FT WORTH CLOUDY 68 64 87 S14 29.81S  
TEXARKANA LGT RAIN 68 63 84 S13 29.87F  
SHREVEPORT CLOUDY 69 65 86 S9 29.91S  
FORT POLK CLOUDY 71 67 88 S15G22 29.98S  
LAKE CHARLES CLOUDY 72 69 90 S14G24 29.98S  

 
 
 
CLICK HERE TO GO TO PREVIOUS BULLETINS.

The Nexlab LA Page
The Nexlab TX Page
The Nexlab AR Page
The Nexlab OK Page Main Text Page